TimeEDT,TemperatureF,Dew PointF,Humidity,Sea Level PressureIn,VisibilityMPH,Wind Direction,Wind SpeedMPH,Gust SpeedMPH,PrecipitationIn,Events,Conditions,WindDirDegrees,DateUTC
12:15 AM,62.6,60.8,94,29.79,10.0,Calm,Calm,-,N/A,,Clear,0,2013-07-24 04:15:00
12:35 AM,62.6,62.6,100,29.81,10.0,Calm,Calm,-,N/A,,Clear,0,2013-07-24 04:35:00
12:55 AM,62.6,62.6,100,29.82,9.0,Calm,Calm,-,N/A,,Scattered Clouds,0,2013-07-24 04:55:00
1:15 AM,62.6,62.6,100,29.83,8.0,Calm,Calm,-,N/A,,Overcast,0,2013-07-24 05:15:00
1:35 AM,64.4,62.6,94,29.82,10.0,Calm,Calm,-,N/A,,Overcast,0,2013-07-24 05:35:00
1:55 AM,64.4,64.4,100,29.82,9.0,South,3.5,-,N/A,,Overcast,180,2013-07-24 05:55:00
2:15 AM,64.4,62.6,94,29.81,10.0,SSW,3.5,-,N/A,,Overcast,210,2013-07-24 06:15:00
2:35 AM,66.2,64.4,94,29.81,10.0,SSW,3.5,-,N/A,,Overcast,200,2013-07-24 06:35:00
2:55 AM,66.2,64.4,94,29.81,8.0,WSW,5.8,-,N/A,,Overcast,240,2013-07-24 06:55:00
3:15 AM,66.2,64.4,94,29.81,10.0,West,8.1,-,N/A,,Overcast,270,2013-07-24 07:15:00
3:35 AM,66.2,64.4,94,29.81,10.0,WNW,6.9,-,N/A,,Overcast,290,2013-07-24 07:35:00
3:55 AM,66.2,62.6,88,29.81,10.0,West,6.9,-,N/A,,Mostly Cloudy,280,2013-07-24 07:55:00
4:15 AM,64.4,62.6,94,29.81,10.0,WNW,4.6,-,N/A,,Overcast,300,2013-07-24 08:15:00
4:35 AM,64.4,60.8,88,29.82,10.0,WNW,6.9,-,N/A,,Overcast,290,2013-07-24 08:35:00
4:55 AM,64.4,60.8,88,29.83,10.0,West,10.4,-,N/A,,Overcast,280,2013-07-24 08:55:00
5:15 AM,62.6,57.2,82,29.84,10.0,West,15.0,21.9,N/A,,Overcast,280,2013-07-24 09:15:00
5:35 AM,62.6,55.4,77,29.84,10.0,West,12.7,19.6,N/A,,Mostly Cloudy,280,2013-07-24 09:35:00
5:55 AM,60.8,57.2,88,29.86,10.0,WNW,9.2,-,N/A,,Scattered Clouds,290,2013-07-24 09:55:00
6:15 AM,60.8,57.2,88,29.87,10.0,West,8.1,-,N/A,,Scattered Clouds,280,2013-07-24 10:15:00
6:35 AM,60.8,55.4,82,29.88,10.0,West,8.1,-,N/A,,Mostly Cloudy,280,2013-07-24 10:35:00
6:55 AM,60.8,55.4,82,29.88,10.0,West,6.9,-,N/A,,Overcast,280,2013-07-24 10:55:00
7:15 AM,60.8,55.4,82,29.89,10.0,WNW,6.9,-,N/A,,Overcast,300,2013-07-24 11:15:00
7:35 AM,60.8,55.4,82,29.90,10.0,West,8.1,-,N/A,,Overcast,270,2013-07-24 11:35:00
7:55 AM,60.8,53.6,77,29.91,10.0,West,6.9,-,N/A,,Overcast,280,2013-07-24 11:55:00
8:15 AM,62.6,55.4,77,29.92,10.0,West,4.6,-,N/A,,Overcast,270,2013-07-24 12:15:00
8:35 AM,62.6,55.4,77,29.92,10.0,West,6.9,-,N/A,,Overcast,280,2013-07-24 12:35:00
8:55 AM,62.6,53.6,72,29.93,10.0,WNW,6.9,-,N/A,,Mostly Cloudy,290,2013-07-24 12:55:00
9:15 AM,62.6,55.4,77,29.93,10.0,West,6.9,-,N/A,,Overcast,270,2013-07-24 13:15:00
9:35 AM,62.6,55.4,77,29.94,10.0,West,5.8,-,N/A,,Mostly Cloudy,270,2013-07-24 13:35:00
9:55 AM,64.4,55.4,73,29.94,10.0,WNW,10.4,17.3,N/A,,Scattered Clouds,300,2013-07-24 13:55:00
10:15 AM,64.4,53.6,68,29.94,10.0,WNW,6.9,18.4,N/A,,Mostly Cloudy,300,2013-07-24 14:15:00
10:35 AM,66.2,55.4,68,29.95,10.0,West,9.2,-,N/A,,Overcast,260,2013-07-24 14:35:00
10:55 AM,66.2,53.6,64,29.95,10.0,West,9.2,-,N/A,,Overcast,270,2013-07-24 14:55:00
11:15 AM,64.4,53.6,68,29.95,10.0,West,9.2,16.1,N/A,,Overcast,280,2013-07-24 15:15:00
11:35 AM,64.4,53.6,68,29.96,10.0,WNW,8.1,-,N/A,,Mostly Cloudy,290,2013-07-24 15:35:00
11:55 AM,66.2,53.6,64,29.96,10.0,WNW,5.8,-,N/A,,Overcast,290,2013-07-24 15:55:00
12:15 PM,64.4,53.6,68,29.97,10.0,West,10.4,-,N/A,,Overcast,270,2013-07-24 16:15:00
12:35 PM,66.2,53.6,64,29.97,10.0,NW,8.1,-,N/A,,Overcast,310,2013-07-24 16:35:00
12:55 PM,66.2,55.4,68,29.97,10.0,NW,6.9,-,N/A,,Overcast,310,2013-07-24 16:55:00
1:15 PM,66.2,53.6,64,29.97,10.0,NW,8.1,-,N/A,,Overcast,310,2013-07-24 17:15:00
1:35 PM,68.0,53.6,60,29.97,10.0,West,8.1,-,N/A,,Overcast,280,2013-07-24 17:35:00
1:55 PM,66.2,51.8,60,29.97,10.0,WNW,8.1,-,N/A,,Overcast,300,2013-07-24 17:55:00
2:15 PM,66.2,51.8,60,29.97,10.0,NW,8.1,-,N/A,,Overcast,310,2013-07-24 18:15:00
2:35 PM,69.8,53.6,56,29.97,10.0,West,5.8,-,N/A,,Mostly Cloudy,280,2013-07-24 18:35:00
2:55 PM,68.0,53.6,60,29.96,10.0,WSW,5.8,-,N/A,,Mostly Cloudy,240,2013-07-24 18:55:00
3:15 PM,68.0,53.6,60,29.97,10.0,NW,3.5,-,N/A,,Mostly Cloudy,310,2013-07-24 19:15:00
3:35 PM,69.8,53.6,56,29.97,10.0,West,3.5,-,N/A,,Overcast,270,2013-07-24 19:35:00
3:55 PM,69.8,53.6,56,29.97,10.0,West,6.9,-,N/A,,Overcast,260,2013-07-24 19:55:00
4:15 PM,69.8,53.6,56,29.97,10.0,WSW,4.6,-,N/A,,Mostly Cloudy,250,2013-07-24 20:15:00
4:35 PM,69.8,53.6,56,29.98,10.0,Calm,Calm,-,N/A,,Mostly Cloudy,0,2013-07-24 20:35:00
4:55 PM,71.6,53.6,53,29.97,10.0,West,8.1,-,N/A,,Mostly Cloudy,270,2013-07-24 20:55:00
5:15 PM,69.8,53.6,56,29.97,10.0,WSW,9.2,-,N/A,,Overcast,250,2013-07-24 21:15:00
5:35 PM,69.8,53.6,56,29.97,10.0,SW,5.8,-,N/A,,Mostly Cloudy,230,2013-07-24 21:35:00
5:55 PM,69.8,53.6,56,29.97,10.0,WSW,6.9,-,N/A,,Mostly Cloudy,250,2013-07-24 21:55:00
6:15 PM,69.8,55.4,60,29.97,10.0,WSW,6.9,-,N/A,,Overcast,250,2013-07-24 22:15:00
6:35 PM,68.0,53.6,60,29.97,10.0,West,6.9,-,N/A,,Scattered Clouds,280,2013-07-24 22:35:00
6:55 PM,66.2,55.4,68,29.97,10.0,SW,4.6,-,N/A,,Clear,230,2013-07-24 22:55:00
7:15 PM,68.0,53.6,60,29.97,10.0,West,6.9,-,N/A,,Clear,270,2013-07-24 23:15:00
7:35 PM,66.2,53.6,64,29.97,10.0,West,5.8,-,N/A,,Clear,280,2013-07-24 23:35:00
7:55 PM,66.2,53.6,64,29.98,10.0,West,6.9,-,N/A,,Clear,270,2013-07-24 23:55:00
8:15 PM,64.4,53.6,68,29.98,10.0,West,4.6,-,N/A,,Clear,270,2013-07-25 00:15:00
8:35 PM,62.6,53.6,72,29.99,10.0,West,3.5,-,N/A,,Clear,280,2013-07-25 00:35:00
8:55 PM,62.6,53.6,72,29.99,10.0,West,4.6,-,N/A,,Clear,270,2013-07-25 00:55:00
9:15 PM,60.8,53.6,77,30.00,10.0,West,3.5,-,N/A,,Clear,270,2013-07-25 01:15:00
9:35 PM,60.8,53.6,77,30.01,10.0,West,5.8,-,N/A,,Clear,260,2013-07-25 01:35:00
9:55 PM,60.8,51.8,72,30.01,10.0,West,4.6,-,N/A,,Clear,280,2013-07-25 01:55:00
10:15 PM,60.8,51.8,72,30.01,10.0,WNW,4.6,-,N/A,,Clear,300,2013-07-25 02:15:00
10:35 PM,59.0,51.8,77,30.01,10.0,WNW,5.8,-,N/A,,Clear,290,2013-07-25 02:35:00
10:55 PM,59.0,51.8,77,30.01,10.0,WNW,3.5,-,N/A,,Clear,300,2013-07-25 02:55:00
11:15 PM,57.2,51.8,82,30.01,10.0,West,4.6,-,N/A,,Clear,280,2013-07-25 03:15:00
11:35 PM,57.2,51.8,82,30.02,10.0,West,4.6,-,N/A,,Clear,260,2013-07-25 03:35:00
11:55 PM,55.4,51.8,88,30.02,10.0,WNW,3.5,-,N/A,,Clear,290,2013-07-25 03:55:00